International Virtual Aviation Organisation

Eastern Europe and Northern Asia MCD

 

Карточка аэропорта UNNT

Внимание!
Информация на этой странице в стадии наполнения.
Если вы не увидели какой-то информации, или заметили неточность - пожалуйста сообщите нам!
Спасибо!
Команда RU-STAFF
Название аэропортаТолмачево
Название аэропорта (англ.)Tolmachevo
Превышение367 ft. (111.9 m.)
Координаты55°0.77999999999989', 82°38.178'
Высота перехода1300m
Эшелон переходаFL060
Коды ответчика5201-5227
Зона ОрВДНовосибирск РПИ (UNNT)
Данные METARUNNT 200930Z 30003MPS 250V320 CAVOK M00/M14 Q1025 R25/090070 R34/090070 NOSIG RMK QFE758/1011
Проноз погоды (TAF)UNNT 200800Z 2009/2109 27005G12MPS 8000 BKN040CB TEMPO 2009/2013 31003G08MPS BECMG 2013/2016 21003G08MPS -SHSN FM202000 19005G12MPS 6000 -SHSN BKN016CB TEMPO 2100/2109 1500 SHSN BKN010CB BECMG 2105/2108 18003G08MPS
NOTAMshow/hide NOTAM
AWOS   TABLE

Информация о ВПП

ВПП Длина ВПП (м.) Покрытие Курс ВПП Частота ILS
073597Асфальтобетон72110.1
163602Цементобетон161109.7
253597Асфальтобетон252108.5
343602Цементобетон341111.1

Диспетчерские позиции

Позывной Наименование органа УВД Частота
UNNT_DEL Новосибирск-Деливери135.4
UNNT_GNDНовосибирск-Руление121.7
UNNT_TWRНовосибирск-Вышка118.5
UNNT_R_APPНовосибирск-Круг122.0
UNNT_APPНовосибирск-Подход127.5



Спутниковое изображение